Weather in Vasil'yevskoye

Russia / Mari El Republic     56°31′15″N   45°48′15″E
temp.,
°C
wind,
m/s
gust,
m/s
humid.,
%
clouds,
%
prec.,
mm/h
press.,
hPa
HPBL,
m
4 march, thu
thu400:00−3wsw51193100 0.4 1002656
03:00−2wsw41094100 0.5 1000704
06:00−3sw4119497 0.1 997671
09:00−1sw6119599 0.4 994750
12:00+1wsw613100100 1.9 9901077
15:000wnw7147699 2.4 9911587
18:00−4wnw6148563 0.1 994960
21:00−5wnw4119178 0.1 997570
5 march, fri
fri500:00−10wnw369413 0.0 999128
03:00−13nw23966 0.0 100165
06:00−16nw23960 0.0 100320
09:00−11wnw13940 0.0 1004156
12:00−6wsw249261 0.0 1005488
15:00−5w358779 0.1 1006779
18:00−7wsw2793100 0.1 1007243
21:00−10wsw239696 0.1 100941
6 march, sat
sat600:00−10wnw229799 0.1 101040
03:00−14wnw229791 0.2 101120
06:00−15nw2397100 0.1 101245
09:00−13nnw259599 0.2 1013280
12:00−11nw358787 0.0 1013725
15:00−11nw368593 0.1 1013918
18:00−15wnw2393100 0.1 101358
21:00−18w239661 0.1 101440
7 march, sun
sun700:00−18wsw239824 0.0 101363
03:00−17sw379755 0.1 1011150
06:00−16ssw399596 0.0 1009235
09:00−12s5129198 0.0 1007444
12:00−9s71393100 0.3 1003871
15:00−7s61293100 1.3 999999
18:00−6ssw51194100 1.6 9951042
21:00−5s51195100 3.2 991842
8 march, mon
mon800:00−5s41196100 1.4 988731
03:00−9wsw71489100 2.1 989939
06:00−10wsw7167797 0.3 9901064
09:00−10w7147499 0.4 9921054
12:00−8w71388100 0.3 994997
15:00−8wnw61191100 0.8 997992
18:00−9w51191100 0.3 1001670
21:00−10nw399497 0.5 1004470